Weather History for KSTS - April, 2013

Change the Weather History Date:

Tuesday, April 30, 2013

  Actual Average Record
Temperature  
Mean Temperature 70 °F 58 °F  
Max Temperature 88 °F 72 °F 91 °F (2014)
Min Temperature 51 °F 44 °F 35 °F (2009)
Degree Days  
Heating Degree Days 0    
Month to date heating degree days 160  
Since 1 July heating degree days 2586  
Cooling Degree Days 5    
Month to date cooling degree days 18  
Year to date cooling degree days 18  
Growing Degree Days 20 (Base 50)    
Moisture  
Dew Point 40 °F    
Average Humidity 46    
Maximum Humidity 77    
Minimum Humidity 15    
Precipitation  
Precipitation 0.00 in 0.05 in 0.26 in (2002)
Month to date precipitation 1.11 2.09  
Year to date precipitation 4.85 20.52  
Since 1 July precipitation 27.26  
Snow  
Snow 0.00 in - - ()
Month to date snowfall 0.0  
Snow Depth 0.00 in    
Sea Level Pressure  
Sea Level Pressure 29.80 in    
Wind  
Wind Speed 7 mph (North)    
Max Wind Speed 17 mph    
Max Gust Speed 23 mph    
Visibility 10 miles    
Events      
T = Trace of Precipitation, MM = Missing Value Source: NWS Daily Summary

Daily Weather History Graph

Daily Weather History Graph

Search for Another Location

Airport or City:

Trip Planner

Search our weather history database for the weather conditions in past years. The results will help you decide how hot, cold, wet, or windy it might be!

Date:

Astronomy

Apr. 30, 2013 Rise Set
Actual Time 6:14 AM PDT 8:02 PM PDT
Civil Twilight 5:46 AM PDT 8:31 PM PDT
Nautical Twilight 5:11 AM PDT 9:05 PM PDT
Astronomical Twilight 4:35 AM PDT 9:42 PM PDT
Moon 12:29 AM PDT (4/30) 10:50 AM PDT (4/30)
Length of Visible Light 14h 44m
Length of Day
13h 47m
Waning Gibbous, 69% of the Moon is Illuminated
Apr 30
Waning Gibbous
May 2
Last Quarter
May 9
New
May 17
First Quarter
May 24
Full

Hourly Weather History & Observations

Time (PDT) Temp. Dew Point Humidity Pressure Visibility Wind Dir Wind Speed Gust Speed Precip Events Conditions
12:53 AM 60.1 °F 46.0 °F 60% 29.78 in 10.0 mi North 9.2 mph - N/A   Clear
1:53 AM 59.0 °F 45.0 °F 60% 29.77 in 10.0 mi North 9.2 mph - N/A   Clear
2:53 AM 57.9 °F 45.0 °F 62% 29.78 in 10.0 mi North 8.1 mph - N/A   Clear
3:53 AM 54.0 °F 45.0 °F 72% 29.78 in 10.0 mi Calm Calm - N/A   Clear
4:53 AM 54.0 °F 44.1 °F 69% 29.78 in 10.0 mi NNE 4.6 mph - N/A   Clear
5:53 AM 52.0 °F 44.1 °F 74% 29.79 in 10.0 mi Calm Calm - N/A   Clear
6:53 AM 54.0 °F 44.1 °F 69% 29.80 in 9.0 mi North 5.8 mph - N/A   Clear
7:53 AM 59.0 °F 43.0 °F 55% 29.82 in 9.0 mi North 8.1 mph - N/A   Clear
8:53 AM 66.0 °F 37.0 °F 34% 29.83 in 9.0 mi North 9.2 mph - N/A   Clear
9:53 AM 70.0 °F 36.0 °F 29% 29.83 in 10.0 mi North 10.4 mph - N/A   Scattered Clouds
10:53 AM 73.0 °F 37.0 °F 27% 29.83 in 9.0 mi NNW 12.7 mph - N/A   Clear
11:53 AM 78.1 °F 39.0 °F 25% 29.83 in 9.0 mi NNW 5.8 mph - N/A   Clear
12:53 PM 80.1 °F 37.0 °F 21% 29.81 in 9.0 mi Variable 4.6 mph - N/A   Scattered Clouds
1:53 PM 84.9 °F 32.0 °F 15% 29.80 in 9.0 mi NNW 6.9 mph - N/A   Clear
2:53 PM 86.0 °F 35.1 °F 16% 29.78 in 9.0 mi NNW 12.7 mph 16.1 mph N/A   Clear
3:53 PM 87.1 °F 34.0 °F 15% 29.77 in 10.0 mi NW 8.1 mph - N/A   Scattered Clouds
4:53 PM 86.0 °F 37.9 °F 18% 29.77 in 9.0 mi NW 8.1 mph 19.6 mph N/A   Clear
6:53 PM 81.0 °F 39.0 °F 22% 29.77 in 9.0 mi NW 12.7 mph - N/A   Scattered Clouds
7:53 PM 73.9 °F 41.0 °F 30% 29.79 in 9.0 mi North 12.7 mph - N/A   Clear
8:53 PM 71.1 °F 41.0 °F 34% 29.81 in 10.0 mi North 15.0 mph - N/A   Clear
9:53 PM 66.9 °F 39.9 °F 37% 29.84 in 10.0 mi North 10.4 mph - N/A   Clear
11:53 PM 60.1 °F 37.9 °F 44% 29.85 in 10.0 mi North 9.2 mph - N/A   Clear